Regional Weather Roundup
Issued by NWS

Home | Current Version | Previous Version | Graphics & Text | Print | Product List | Glossary On
Versions: 1 2 3 4 5 6 7 8 9 10 11 12 13 14 15 16 17 18 19 20 21 22 23 24 25 26 27 28 29 30 31 32 33 34 35 36 37 38 39 40 41 42 43 44 45 46 47 48 49 50
000
ASUS43 KFSD 292002
RWRSD

WEATHER ROUNDUP FOR SOUTH DAKOTA
NATIONAL WEATHER SERVICE SIOUX FALLS SD
300 PM CDT FRI AUG 29 2014

NOTE: "FAIR" INDICATES FEW OR NO CLOUDS BELOW 12,000 FEET WITH NO
SIGNIFICANT WEATHER AND/OR OBSTRUCTIONS TO VISIBILITY.


SDZ001>005-009-010-012>017-292100-
NORTHWEST AND NORTH CENTRAL SOUTH DAKOTA

CITY           SKY/WX    TMP DP  RH WIND       PRES   REMARKS
BUFFALO          N/A     72  53  51 NW23G29   29.93F
FAITH            N/A     68  58  70 NW10      29.96S
MOBRIDGE       MOSUNNY   77  61  57 N21G29    29.84S
$$

SDZ012>016-024>037-041>051-057-063-072>074-292100-
SOUTHWEST AND SOUTH CENTRAL SOUTH DAKOTA

CITY           SKY/WX    TMP DP  RH WIND       PRES   REMARKS
RAPID CTY ARPT MOSUNNY   77  51  40 N13G20    30.00F
PIERRE         MOSUNNY   81  59  47 N22       29.84F
CUSTER         MOSUNNY   68  51  54 E9        30.10S
ELLSWORTH AFB  MOSUNNY   76  53  44 NW12G18   30.00F
PHILIP         CLOUDY    74  55  51 N15       29.92S
PINE RIDGE     CLOUDY    70  53  54 N15       30.01R
WINNER         FAIR      84  61  45 N13       29.84R
$$

SDZ004>011-016>023-039-040-292100-
NORTHEAST SOUTH DAKOTA

CITY           SKY/WX    TMP DP  RH WIND       PRES   REMARKS
ABERDEEN       PTSUNNY   77  67  71 NW12      29.79S
WATERTOWN      PTSUNNY   75  66  73 NW5       29.78F
SISSETON         N/A     79  69  71 NE6       29.75F
$$

SDZ017-020-022-023-036>040-048>070-292100-
SOUTHEAST SOUTH DAKOTA

CITY           SKY/WX    TMP DP  RH WIND       PRES   REMARKS
SIOUX FALLS    CLOUDY    75  68  78 W5        29.79R THUNDER
HURON          MOSUNNY   80  68  66 NW13      29.78S
CHAMBERLAIN    SUNNY     81  62  52 N10       29.81F
MITCHELL       PTSUNNY   78  68  71 NW7       29.78F
YANKTON        CLOUDY    75  68  78 CALM      29.77F
$$

ABBREVIATIONS USED IN REMARKS
   TC - TEMPERATURE IN CELSIUS
  WCI - WIND CHILL INDEX
   HX - HEAT INDEX
  VSB - VISIBILITY



USA.gov is the U.S. government's official web portal to all federal, state and local government web resources and services.